| time (UTC) | temp F | wind direction | speed MPH | gust MPH | rain 1hr in | rain 24hr in | rain mn in | humidity % | barometer mb |
| 20260504081925 | 67 | 242 | 3.0 | 6.0 | 0.00 | 0.00 | 0.00 | 45 | 1001.5 |
| 20260504080924 | 68 | 228 | 2.0 | 3.0 | 0.00 | 0.00 | 0.00 | 45 | 1001.6 |
| 20260504045925 | 70 | 211 | 2.0 | 7.0 | 0.00 | 0.00 | 0.00 | 41 | 1003.2 |
| 20260504044925 | 71 | 311 | 5.0 | 12.0 | 0.00 | 0.00 | 0.00 | 41 | 1003.1 |
| 20260504043924 | 71 | 186 | 3.0 | 5.0 | 0.00 | 0.00 | 0.00 | 40 | 1003.1 |
| 20260504042926 | 71 | 196 | 5.0 | 9.0 | 0.00 | 0.00 | 0.00 | 40 | 1003.1 |
| 20260504041925 | 71 | 210 | 6.0 | 14.0 | 0.00 | 0.00 | 0.00 | 39 | 1003.2 |
| 20260504040926 | 71 | 194 | 3.0 | 12.0 | 0.00 | 0.00 | 0.00 | 39 | 1003.2 |
| 20260504035925 | 72 | 248 | 3.0 | 10.0 | 0.00 | 0.00 | 0.00 | 39 | 1003.5 |
| 20260504034924 | 72 | 192 | 3.0 | 6.0 | 0.00 | 0.00 | 0.00 | 38 | 1003.5 |
| 20260504033925 | 73 | 186 | 8.0 | 12.0 | 0.00 | 0.00 | 0.00 | 37 | 1003.4 |
| 20260504032924 | 73 | 227 | 3.0 | 14.0 | 0.00 | 0.00 | 0.00 | 37 | 1003.4 |
| 20260504031925 | 73 | 199 | 2.0 | 7.0 | 0.00 | 0.00 | 0.00 | 36 | 1003.5 |
| 20260504030924 | 74 | 191 | 5.0 | 10.0 | 0.00 | 0.00 | 0.00 | 36 | 1003.5 |
| 20260504025925 | 74 | 201 | 7.0 | 10.0 | 0.00 | 0.00 | 0.00 | 35 | 1003.6 |
| 20260504024924 | 74 | 196 | 3.0 | 9.0 | 0.00 | 0.00 | 0.00 | 35 | 1003.6 |
| 20260504023925 | 74 | 193 | 5.0 | 6.0 | 0.00 | 0.00 | 0.00 | 35 | 1003.6 |
| 20260504022924 | 74 | 192 | 5.0 | 9.0 | 0.00 | 0.00 | 0.00 | 35 | 1003.5 |
| 20260504021925 | 74 | 186 | 5.0 | 7.0 | 0.00 | 0.00 | 0.00 | 34 | 1003.5 |
| 20260504020926 | 75 | 188 | 5.0 | 7.0 | 0.00 | 0.00 | 0.00 | 34 | 1003.4 |
| 20260504015925 | 75 | 194 | 5.0 | 5.0 | 0.00 | 0.00 | 0.00 | 32 | 1003.6 |
| 20260504014925 | 77 | 186 | 2.0 | 3.0 | 0.00 | 0.00 | 0.00 | 30 | 1003.6 |
| 20260504013926 | 77 | 202 | 2.0 | 5.0 | 0.00 | 0.00 | 0.00 | 30 | 1003.5 |
| 20260504012925 | 78 | 207 | 2.0 | 5.0 | 0.00 | 0.00 | 0.00 | 29 | 1003.4 |
| 20260504011924 | 78 | 202 | 3.0 | 6.0 | 0.00 | 0.00 | 0.00 | 29 | 1003.3 |
| 20260504010925 | 79 | 201 | 2.0 | 5.0 | 0.00 | 0.00 | 0.00 | 28 | 1003.3 |
| 20260504005924 | 79 | 195 | 1.0 | 7.0 | 0.00 | 0.00 | 0.00 | 29 | 1003.6 |
| 20260504004925 | 80 | 174 | 0.0 | 3.0 | 0.00 | 0.00 | 0.00 | 28 | 1003.7 |
| 20260504003924 | 80 | 243 | 1.0 | 1.0 | 0.00 | 0.00 | 0.00 | 28 | 1003.8 |
| 20260504002925 | 81 | 278 | 1.0 | 2.0 | 0.00 | 0.00 | 0.00 | 26 | 1003.8 |
| 20260504001924 | 81 | 287 | 1.0 | 2.0 | 0.00 | 0.00 | 0.00 | 27 | 1003.9 |
| 20260504000925 | 81 | 275 | 1.0 | 5.0 | 0.00 | 0.00 | 0.00 | 26 | 1004.0 |
| 20260503235924 | 82 | 248 | 1.0 | 1.0 | 0.00 | 0.00 | 0.00 | 25 | 1004.2 |
| 20260503234925 | 82 | 275 | 1.0 | 2.0 | 0.00 | 0.00 | 0.00 | 24 | 1004.4 |
| 20260503233925 | 83 | 288 | 2.0 | 3.0 | 0.00 | 0.00 | 0.00 | 23 | 1004.4 |
| 20260503232926 | 83 | 275 | 1.0 | 5.0 | 0.00 | 0.00 | 0.00 | 24 | 1004.5 |
| 20260503231925 | 84 | 275 | 1.0 | 2.0 | 0.00 | 0.00 | 0.00 | 24 | 1004.4 |
| 20260503230926 | 84 | 289 | 2.0 | 3.0 | 0.00 | 0.00 | 0.00 | 24 | 1004.4 |
| 20260503225925 | 84 | 272 | 1.0 | 2.0 | 0.00 | 0.00 | 0.00 | 24 | 1004.3 |
| 20260503224926 | 85 | 281 | 2.0 | 3.0 | 0.00 | 0.00 | 0.00 | 22 | 1004.4 |
| 20260503223924 | 85 | 284 | 2.0 | 3.0 | 0.00 | 0.00 | 0.00 | 22 | 1004.6 |
| 20260503222925 | 85 | 280 | 3.0 | 10.0 | 0.00 | 0.00 | 0.00 | 23 | 1004.6 |
| 20260503221925 | 86 | 269 | 1.0 | 2.0 | 0.00 | 0.00 | 0.00 | 22 | 1004.6 |
| 20260503220924 | 85 | 285 | 2.0 | 3.0 | 0.00 | 0.00 | 0.00 | 22 | 1004.7 |
| 20260503215924 | 85 | 283 | 1.0 | 3.0 | 0.00 | 0.00 | 0.00 | 23 | 1004.7 |
| 20260503214925 | 86 | 264 | 3.0 | 5.0 | 0.00 | 0.00 | 0.00 | 21 | 1004.8 |
| 20260503213924 | 86 | 292 | 3.0 | 6.0 | 0.00 | 0.00 | 0.00 | 20 | 1005.0 |
| 20260503212925 | 86 | 292 | 3.0 | 6.0 | 0.00 | 0.00 | 0.00 | 21 | 1005.2 |
| 20260503211924 | 86 | 285 | 1.0 | 3.0 | 0.00 | 0.00 | 0.00 | 22 | 1005.3 |
| 20260503210925 | 86 | 283 | 9.0 | 14.0 | 0.00 | 0.00 | 0.00 | 22 | 1005.4 |
| 20260503205924 | 86 | 280 | 2.0 | 5.0 | 0.00 | 0.00 | 0.00 | 22 | 1005.7 |
| 20260503204925 | 85 | 273 | 1.0 | 2.0 | 0.00 | 0.00 | 0.00 | 21 | 1005.8 |
| 20260503203924 | 85 | 283 | 2.0 | 3.0 | 0.00 | 0.00 | 0.00 | 20 | 1006.2 |
| 20260503202925 | 85 | 274 | 2.0 | 3.0 | 0.00 | 0.00 | 0.00 | 22 | 1006.4 |
| 20260503201925 | 85 | 285 | 3.0 | 6.0 | 0.00 | 0.00 | 0.00 | 21 | 1006.5 |
| 20260503200924 | 85 | 270 | 2.0 | 3.0 | 0.00 | 0.00 | 0.00 | 24 | 1006.7 |
| 20260503195925 | 85 | 290 | 6.0 | 9.0 | 0.00 | 0.00 | 0.00 | 21 | 1006.9 |
| 20260503194924 | 85 | 285 | 3.0 | 5.0 | 0.00 | 0.00 | 0.00 | 21 | 1006.9 |
| 20260503193926 | 85 | 235 | 2.0 | 6.0 | 0.00 | 0.00 | 0.00 | 23 | 1007.0 |
| 20260503192925 | 85 | 288 | 1.0 | 2.0 | 0.00 | 0.00 | 0.00 | 23 | 1007.3 |
| 20260503191925 | 84 | 283 | 2.0 | 3.0 | 0.00 | 0.00 | 0.00 | 25 | 1007.4 |
| 20260503190924 | 83 | 279 | 3.0 | 3.0 | 0.00 | 0.00 | 0.00 | 21 | 1007.6 |
| 20260503185925 | 83 | 224 | 2.0 | 5.0 | 0.00 | 0.00 | 0.00 | 24 | 1007.9 |
| 20260503184924 | 83 | 257 | 2.0 | 3.0 | 0.00 | 0.00 | 0.00 | 26 | 1008.0 |
| 20260503183925 | 83 | 286 | 3.0 | 3.0 | 0.00 | 0.00 | 0.00 | 24 | 1008.0 |
| 20260503182924 | 82 | 276 | 3.0 | 5.0 | 0.00 | 0.00 | 0.00 | 26 | 1008.3 |
| 20260503181925 | 82 | 266 | 2.0 | 12.0 | 0.00 | 0.00 | 0.00 | 31 | 1008.5 |
| 20260503180924 | 81 | 286 | 1.0 | 2.0 | 0.00 | 0.00 | 0.00 | 31 | 1008.8 |
| 20260503175925 | 81 | 280 | 2.0 | 3.0 | 0.00 | 0.00 | 0.00 | 31 | 1009.2 |
| 20260503174926 | 79 | 286 | 1.0 | 3.0 | 0.00 | 0.00 | 0.00 | 34 | 1009.3 |
| 20260503173924 | 78 | 280 | 1.0 | 1.0 | 0.00 | 0.00 | 0.00 | 38 | 1009.7 |
| 20260503172924 | 78 | 281 | 1.0 | 2.0 | 0.00 | 0.00 | 0.00 | 36 | 1009.8 |
| 20260503171924 | 77 | 281 | 1.0 | 3.0 | 0.00 | 0.00 | 0.00 | 38 | 1009.9 |
| 20260503170925 | 76 | 273 | 1.0 | 1.0 | 0.00 | 0.00 | 0.00 | 40 | 1010.1 |
| 20260503150925 | 65 | 276 | 1.0 | 2.0 | 0.00 | 0.00 | 0.00 | 56 | 1011.8 |
| 20260503130925 | 53 | 200 | 2.0 | 6.0 | 0.00 | 0.00 | 0.00 | 70 | 1012.6 |